Okean O Rocket - Orbit

View from above orbital plane
View from above orbital plane
View from above satellite
View from above satellite

Ground track
Ground track

The orbit data is extracted from the following two-line orbital elements,

1 25861U 99039B   13142.93834765  .00000385  00000-0  61332-4 0  3278
2 25861 097.8944 103.7409 0016096 191.5258 219.5201 14.77280253746244
Epoch (UTC): 22 May 2013 22:31:13
Eccentricity: 0.0016096
inclination: 97.8944°
perigee height: 626 km
apogee height: 649 km
right ascension of ascending node: 103.7409°
argument of perigee: 191.5258°
revolutions per day: 14.77280253
mean anomaly at epoch: 219.5201°
orbit number at epoch: 74624

The dashed part of the orbit path shows where the satellite is in the earth's shadow,  

Developed and maintained by Chris Peat, Heavens-Above GmbH. Please read the updated FAQ before sending e-mail. Imprint. DLR